[[{"header":{"parameterUnit":"m.s-1","parameterCategory":1,"la1":30.2991,"la2":30.254,"lo1":-89.0895,"lo2":-89.0444,"dy":0.0017,"dx":0.0017,"nx":28,"ny":28,"refTime":"2023-09-19T09:00:00:Z","depth":0,"parameterNumber":2,"parameterNumberName":"U-component_of_WINDS"},"data":[0,0,0,0,0,0,0,0,0,0,0,0,0,0,0,0,0,0,0,0,0,0,0,0,0,0,0,0,0,0,0,0,0,0,0,0,0,0,0,0,0,0,0,0,0,0,0,0,0,0,0,0,0,0,0,0,0,0,-7.047,-7.0472,0,-7.0676,-7.0678,-7.068,-7.0567,-7.0562,-7.0556,-7.0551,-7.0761,-7.0772,-7.0783,0,0,0,0,0,0,0,0,0,0,0,0,0,-6.9978,-6.9987,-7.047,-7.0473,-7.0475,-7.0675,-7.0678,-7.0681,-7.0568,-7.0561,-7.0555,-7.0548,-7.0758,-7.0771,-7.0784,0,0,0,0,0,0,0,0,0,0,0,0,0,-7.0188,-6.9991,-7.047,-7.0443,-7.0443,-7.0675,-7.0678,-7.0682,-7.057,-7.0561,-7.0553,-7.0545,-7.0754,-7.0769,-7.0785,-7.1055,0,0,-7.0835,-7.0842,0,0,0,0,0,0,0,0,-7.0176,-7.0206,-7.0444,-7.0445,-7.0445,-7.0587,-7.0582,-7.0807,-7.0572,-7.0522,-7.055,-7.0541,-7.071,-7.073,-7.0787,-7.1065,-7.1074,-7.0837,-7.0847,-7.0854,-7.0858,0,0,0,0,0,0,0,-7.0162,-7.0197,-7.0551,-7.0448,-7.0449,-7.042,-7.0441,-7.0624,-7.0661,-7.0525,-7.0518,-7.0543,-7.0709,-7.0771,-7.0791,-7.1077,-7.0836,-7.0851,-7.0861,-7.0867,-7.1581,-7.159,0,0,0,0,0,0,-7.0149,-7.0186,-7.0545,-7.0557,-7.0287,-7.0436,-7.0459,-7.055,-7.0659,-7.0667,-7.055,-7.0537,-7.0748,-7.0772,-7.0798,-7.1116,-7.0853,-7.0869,-7.0878,-7.1572,-7.1583,-7.1593,0,0,0,0,0,0,-7.0139,-7.0182,-7.0536,-7.037,-7.0412,-7.0453,-7.0557,-7.0559,-7.0621,-7.0678,-7.0683,-7.0607,-7.0742,-7.0775,-7.0991,-7.1122,-7.0876,-7.0891,-7.1561,-7.1575,-7.1588,-7.1757,0,0,0,0,0,0,-7.0126,-7.0179,-7.0283,-7.0373,-7.0422,-7.0727,-7.0565,-7.0569,-7.0649,-7.0634,-7.0733,-7.0741,-7.0738,-7.0967,-7.1007,-7.114,-7.0904,-7.155,-7.1568,-7.1584,-7.174,-7.1775,-7.1805,0,0,0,0,0,-7.0108,-7.0324,-7.0289,-7.0333,-7.0552,-7.0735,-7.0763,-7.0755,-7.066,-7.0764,-7.0799,-7.0738,-7.1102,-7.099,-7.1034,-7.1174,-7.1541,-7.1562,-7.1582,-7.1725,-7.1768,-7.1804,0,0,0,0,0,0,-7.0249,-7.0335,-7.0297,-7.0549,-7.0635,-7.0716,-7.0846,-7.0802,-7.0917,-7.0898,-7.0884,-7.0907,-7.113,-7.1174,-7.1048,-7.1438,-7.1306,-7.1337,-7.14,-7.1441,-7.1473,-7.1456,-7.0917,0,0,0,0,0,-7.031,-7.0452,-7.0519,-7.0734,-7.0779,-7.0806,-7.0885,-7.0871,-7.096,-7.0996,-7.1048,-7.1137,-7.127,-7.1359,-7.1486,-7.1747,-7.1764,-7.1865,-7.1897,-7.1923,-7.1948,-7.2084,-7.2128,-7.1661,-7.1661,-7.166,0,0,-7.0436,-7.05,-7.0591,-7.0764,-7.0829,-7.0974,-7.0837,-7.0998,-7.1105,-7.1021,-7.1226,-7.1268,-7.1365,-7.1603,-7.1711,-7.1647,-7.2082,-7.195,-7.197,-7.1981,-7.211,-7.2154,-7.2193,-7.1675,-7.1673,-7.167,0,0,-7.0738,-7.0804,-7.0987,-7.1055,-7.1155,-7.1171,-7.1215,-7.1302,-7.1326,-7.1532,-7.147,-7.1597,-7.183,-7.19,-7.1966,-7.2293,-7.2238,-7.2335,-7.2503,-7.2636,-7.2672,-7.2705,-7.2816,-7.2856,-7.2361,-7.2361,-7.2362,0,-7.0882,-7.1098,-7.1087,-7.1251,-7.1327,-7.1258,-7.1441,-7.1508,-7.1645,-7.1699,-7.1625,-7.1912,-7.1973,-7.2224,-7.2303,-7.2362,-7.2408,-7.2322,-7.2668,-7.2701,-7.2731,-7.2836,-7.2879,-7.2372,-7.2371,-7.237,-7.2369,0,-7.1267,-7.1419,-7.1555,-7.1686,-7.1779,-7.1953,-7.1965,-7.206,-7.2038,-7.2061,-7.2269,-7.234,-7.2477,-7.2537,-7.2519,-7.2785,-7.2741,-7.2669,-7.2536,-7.2786,-7.2884,-7.2925,-7.2387,-7.2383,-7.238,-7.2378,0,0,-7.1663,-7.1785,-7.1835,-7.1891,-7.1996,-7.2112,-7.2282,-7.2415,-7.2494,-7.2591,-7.273,-7.2927,-7.2859,-7.2934,-7.2923,-7.304,-7.3287,-7.2953,-7.2955,-7.3008,-7.3578,-7.3628,-7.3675,-7.3253,-7.3261,-7.3268,-7.3568,0,-7.1968,-7.2263,-7.2256,-7.253,-7.2666,-7.2602,-7.2748,-7.2828,-7.2854,-7.2973,-7.3001,-7.3138,-7.3042,-7.3086,-7.32,-7.3233,-7.3401,-7.3212,-7.3378,-7.3385,-7.335,-7.3728,-7.3782,-7.4062,-7.3607,-7.3614,-7.3619,0,-7.2363,-7.247,-7.2757,-7.2837,-7.2894,-7.3027,-7.3145,-7.3262,-7.3349,-7.3359,-7.3443,-7.3412,-7.3581,-7.3447,-7.3677,-7.3549,-7.3617,-7.3644,-7.3654,-7.3665,-7.3513,-7.3744,-7.4152,-7.4191,-7.3681,-7.3676,-7.3671,0,-7.2615,-7.2833,-7.303,-7.3082,-7.3183,-7.3276,-7.3322,-7.3401,-7.3481,-7.3586,-7.3636,-7.376,-7.3827,-7.3923,-7.3925,-7.3828,-7.4156,-7.4023,-7.4165,-7.4165,-7.4234,-7.4228,-7.4653,-7.4288,-7.4287,-7.4286,-7.4285,0,-7.2953,-7.3129,-7.3144,-7.3266,-7.346,-7.3451,-7.3644,-7.3681,-7.3752,-7.3877,-7.3831,-7.395,-7.3948,-7.4069,-7.4072,-7.4259,-7.4291,-7.4302,-7.4299,-7.4303,-7.43,-7.4343,-7.4321,-7.4297,-7.4295,-7.4293,-7.4291,0,-7.3266,-7.3284,-7.3494,-7.3572,-7.3595,-7.3735,-7.38,-7.3914,-7.3935,-7.4095,-7.4132,-7.4165,-7.4304,-7.4317,-7.448,-7.4481,-7.4705,-7.4685,-7.4675,-7.467,-7.4809,-7.4793,-7.5271,-7.533,-7.4932,-7.4936,-7.4939,0,-7.3478,-7.3611,-7.3703,-7.3783,-7.3834,-7.3965,-7.4045,-7.4041,-7.4126,-7.4233,-7.4334,-7.4468,-7.4574,-7.4799,-7.4837,-7.496,-7.4938,-7.5097,-7.4956,-7.4953,-7.4933,-7.4922,-7.4933,-7.5123,-7.5127,-7.5131,-7.5134,0,-7.3849,-7.3851,-7.3968,-7.4088,-7.4184,-7.4278,-7.4366,-7.4435,-7.4441,-7.4539,-7.4679,-7.4762,-7.4926,-7.5058,-7.5178,-7.5223,-7.5179,-7.5179,-7.5216,-7.5218,-7.5204,-7.5207,-7.4743,-7.5166,-7.5163,-7.5161,-7.5159,-7.5158,-7.4114,-7.4228,-7.4308,-7.4439,-7.4504,-7.4587,-7.4696,-7.4731,-7.4848,-7.498,-7.4971,-7.5126,-7.5206,-7.5362,-7.5417,-7.5536,-7.5482,-7.5539,-7.5553,-7.5565,-7.5576,-7.519,-7.5559,-7.5558,-7.5557,-7.5556,-7.5556,0,-7.4478,-7.4526,-7.4647,-7.477,-7.4872,-7.4823,-7.4917,-7.5004,-7.514,-7.522,-7.5325,-7.5484,-7.5612,-7.5659,-7.5783,-7.5868,-7.5851,-7.59,-7.5891,-7.5901,-7.5621,-7.5572,-7.5912,-7.5912,-7.5912,-7.5912,-7.5912,-7.5912,-7.4678,-7.4866,-7.4877,-7.5095,-7.5142,-7.5292,-7.5349,-7.5424,-7.5486,-7.5666,-7.5771,-7.5802,-7.5867,-7.5994,-7.6108,-7.6118,-7.6163,-7.6221,-7.6222,-7.5958,-7.5922,-7.5887,-7.5841,-7.6232,-7.6233,-7.6491,-7.6493,-7.6495]},{"header":{"parameterUnit":"m.s-1","parameterCategory":1,"la1":30.2991,"la2":30.254,"lo1":-89.0895,"lo2":-89.0444,"dy":0.0017,"dx":0.0017,"nx":28,"ny":28,"refTime":"2023-09-19T09:00:00:Z","depth":0,"parameterNumber":3,"parameterNumberName":"V-component_of_WINDS"},"data":[0,0,0,0,0,0,0,0,0,0,0,0,0,0,0,0,0,0,0,0,0,0,0,0,0,0,0,0,0,0,0,0,0,0,0,0,0,0,0,0,0,0,0,0,0,0,0,0,0,0,0,0,0,0,0,0,0,0,-1.438,-1.4375,0,-1.3949,-1.3944,-1.3939,-1.3786,-1.3788,-1.379,-1.3791,-1.3328,-1.3315,-1.3301,0,0,0,0,0,0,0,0,0,0,0,0,0,-1.5048,-1.5037,-1.438,-1.4375,-1.437,-1.3949,-1.3943,-1.3937,-1.3786,-1.3788,-1.379,-1.3792,-1.3333,-1.3316,-1.33,0,0,0,0,0,0,0,0,0,0,0,0,0,-1.4701,-1.5033,-1.4381,-1.4244,-1.4227,-1.3951,-1.3943,-1.3936,-1.3786,-1.3788,-1.3791,-1.3793,-1.3338,-1.3318,-1.3298,-1.3119,0,0,-1.3234,-1.3225,0,0,0,0,0,0,0,0,-1.4721,-1.4677,-1.4269,-1.4253,-1.4234,-1.3924,-1.4009,-1.3661,-1.3785,-1.3953,-1.3791,-1.3794,-1.3523,-1.3487,-1.34,-1.3098,-1.3078,-1.3232,-1.3219,-1.3211,-1.3205,0,0,0,0,0,0,0,-1.4745,-1.4694,-1.4209,-1.4264,-1.4242,-1.4195,-1.4149,-1.3942,-1.3728,-1.3938,-1.3926,-1.3878,-1.3514,-1.3421,-1.3388,-1.3071,-1.3233,-1.3214,-1.3201,-1.3193,-1.2589,-1.2586,0,0,0,0,0,0,-1.4796,-1.4716,-1.4222,-1.4196,-1.4489,-1.4182,-1.413,-1.4021,-1.3731,-1.3689,-1.3877,-1.3873,-1.3455,-1.3413,-1.3371,-1.3137,-1.3211,-1.3191,-1.3179,-1.2593,-1.2588,-1.2584,0,0,0,0,0,0,-1.4811,-1.4753,-1.424,-1.4452,-1.4384,-1.4168,-1.4046,-1.4011,-1.3918,-1.3684,-1.3643,-1.3823,-1.3455,-1.3401,-1.3182,-1.3119,-1.3182,-1.3163,-1.2597,-1.2591,-1.2586,-1.2672,0,0,0,0,0,0,-1.4831,-1.476,-1.4696,-1.4452,-1.4373,-1.4066,-1.4043,-1.4001,-1.3885,-1.3876,-1.3623,-1.3583,-1.3453,-1.3214,-1.3162,-1.3091,-1.3147,-1.2601,-1.2594,-1.2588,-1.2674,-1.267,-1.2667,0,0,0,0,0,-1.4855,-1.4735,-1.4694,-1.4635,-1.429,-1.4063,-1.4017,-1.3876,-1.3881,-1.381,-1.3659,-1.3591,-1.3136,-1.3193,-1.3133,-1.3055,-1.2605,-1.2596,-1.2589,-1.2675,-1.2671,-1.2667,0,0,0,0,0,0,-1.4971,-1.4701,-1.4652,-1.4451,-1.4282,-1.4038,-1.3946,-1.3877,-1.3698,-1.3696,-1.3522,-1.3466,-1.3259,-1.3135,-1.3205,-1.2862,-1.2865,-1.2844,-1.2951,-1.2945,-1.2942,-1.2974,-1.3129,0,0,0,0,0,-1.4975,-1.4821,-1.4589,-1.4433,-1.4352,-1.4164,-1.406,-1.3966,-1.378,-1.3706,-1.3539,-1.3355,-1.3169,-1.3051,-1.2868,-1.2655,-1.2592,-1.2571,-1.2568,-1.2567,-1.2549,-1.2418,-1.2404,-1.2558,-1.2558,-1.2558,0,0,-1.4978,-1.4811,-1.4723,-1.4452,-1.431,-1.4146,-1.4104,-1.3934,-1.3807,-1.3678,-1.3462,-1.3332,-1.3114,-1.2897,-1.2792,-1.2787,-1.2493,-1.2556,-1.2557,-1.254,-1.2408,-1.2394,-1.2381,-1.2553,-1.2554,-1.2554,0,0,-1.4899,-1.4761,-1.4613,-1.4471,-1.4258,-1.4133,-1.4098,-1.3863,-1.3773,-1.3555,-1.3453,-1.3295,-1.2982,-1.2829,-1.271,-1.2567,-1.2494,-1.2511,-1.2493,-1.2367,-1.2355,-1.2343,-1.2284,-1.2266,-1.2496,-1.2496,-1.2496,0,-1.4927,-1.4684,-1.4544,-1.4377,-1.4257,-1.4138,-1.3981,-1.3848,-1.3583,-1.3499,-1.3499,-1.3098,-1.2944,-1.2684,-1.2649,-1.256,-1.2505,-1.2539,-1.237,-1.2356,-1.2343,-1.2284,-1.2264,-1.2499,-1.2499,-1.2499,-1.2498,0,-1.4725,-1.4557,-1.4461,-1.4214,-1.4083,-1.3923,-1.3749,-1.3632,-1.3548,-1.342,-1.3193,-1.3004,-1.2777,-1.2709,-1.2624,-1.2434,-1.2436,-1.2405,-1.2403,-1.2334,-1.2276,-1.2253,-1.2504,-1.2503,-1.2502,-1.2501,0,0,-1.4708,-1.4385,-1.4351,-1.4234,-1.3988,-1.385,-1.3679,-1.3464,-1.3362,-1.3182,-1.3028,-1.2763,-1.2731,-1.2596,-1.2492,-1.2383,-1.2271,-1.2362,-1.2354,-1.2346,-1.2039,-1.2062,-1.2039,-1.2223,-1.2218,-1.2214,-1.2056,0,-1.4592,-1.4291,-1.4157,-1.3912,-1.3748,-1.363,-1.3479,-1.3307,-1.3182,-1.3017,-1.2875,-1.2688,-1.2664,-1.258,-1.2467,-1.231,-1.2206,-1.2319,-1.2068,-1.2061,-1.2123,-1.201,-1.2033,-1.1893,-1.2033,-1.2029,-1.2026,0,-1.4418,-1.4243,-1.3983,-1.375,-1.3676,-1.3546,-1.3332,-1.3181,-1.2978,-1.2893,-1.2741,-1.2641,-1.2446,-1.2461,-1.2184,-1.2264,-1.2152,-1.2058,-1.2049,-1.2016,-1.2037,-1.1968,-1.1846,-1.1823,-1.199,-1.1993,-1.1996,0,-1.4424,-1.4122,-1.3925,-1.383,-1.3556,-1.3464,-1.3344,-1.3145,-1.3021,-1.2832,-1.2747,-1.2537,-1.2419,-1.2253,-1.2094,-1.2121,-1.183,-1.1833,-1.1745,-1.1749,-1.1687,-1.1692,-1.154,-1.1625,-1.1625,-1.1625,-1.1626,0,-1.4306,-1.415,-1.3924,-1.3803,-1.3621,-1.3464,-1.3285,-1.3155,-1.2978,-1.2821,-1.2704,-1.2558,-1.2361,-1.2186,-1.206,-1.1845,-1.1794,-1.1713,-1.168,-1.1721,-1.173,-1.1642,-1.1645,-1.1619,-1.1621,-1.1622,-1.1623,0,-1.4281,-1.4125,-1.3902,-1.3661,-1.3596,-1.3471,-1.326,-1.3132,-1.3,-1.2803,-1.2747,-1.2537,-1.2326,-1.2152,-1.1874,-1.1788,-1.1561,-1.1527,-1.1632,-1.1614,-1.1534,-1.1541,-1.1315,-1.1273,-1.1393,-1.1392,-1.1391,0,-1.4215,-1.4092,-1.3838,-1.3729,-1.3612,-1.3436,-1.331,-1.3147,-1.3019,-1.2776,-1.2674,-1.2456,-1.2273,-1.1938,-1.1754,-1.1538,-1.1493,-1.1428,-1.1459,-1.1501,-1.1483,-1.1491,-1.1473,-1.1424,-1.1424,-1.1424,-1.1423,0,-1.411,-1.4038,-1.3865,-1.3662,-1.3516,-1.3346,-1.3173,-1.3088,-1.2891,-1.2751,-1.2537,-1.2395,-1.2111,-1.1891,-1.1655,-1.1519,-1.1434,-1.1416,-1.1382,-1.142,-1.1483,-1.1441,-1.1618,-1.142,-1.1421,-1.1421,-1.1421,-1.1421,-1.4057,-1.394,-1.3742,-1.355,-1.3404,-1.3243,-1.311,-1.2962,-1.2783,-1.2544,-1.2457,-1.2234,-1.2024,-1.1699,-1.1563,-1.138,-1.137,-1.1325,-1.1311,-1.1301,-1.1303,-1.1518,-1.1336,-1.1336,-1.1336,-1.1336,-1.1336,0,-1.394,-1.3807,-1.3633,-1.3396,-1.3242,-1.3185,-1.2988,-1.286,-1.2669,-1.2485,-1.2307,-1.2055,-1.184,-1.1639,-1.1412,-1.1303,-1.1257,-1.1248,-1.1251,-1.1219,-1.1328,-1.1377,-1.1288,-1.1288,-1.1288,-1.1288,-1.1288,-1.1288,-1.3862,-1.3659,-1.3562,-1.3281,-1.3145,-1.2932,-1.2824,-1.2671,-1.2523,-1.225,-1.2073,-1.1946,-1.1751,-1.1508,-1.1304,-1.1249,-1.1168,-1.1167,-1.1102,-1.1206,-1.1213,-1.1219,-1.1264,-1.1153,-1.1153,-1.1007,-1.1005,-1.1004]}]]